Location: Ljubljana
(46.0550°N, 14.5140°E)
Time: 09:17:28
(UTC+02:00)

Envisat - Visible Passes

Search period start: 19 October 2017 00:00
Search period end: 29 October 2017 00:00
Orbit: 764 x 766 km, 98.2° (Epoch: 18 October)

Date Brightness Start Highest point End Pass type
(mag) Time Alt. Az. Time Alt. Az. Time Alt. Az.
19 Oct 3.6 19:54:41 34° ENE 19:54:51 34° ENE 19:59:24 10° N visible
19 Oct 4.7 21:34:54 31° WNW 21:34:54 31° WNW 21:38:27 10° NNW visible
20 Oct 4.4 19:17:42 17° ENE 19:18:30 18° ENE 19:21:50 10° NNE visible
20 Oct 3.5 20:57:55 56° NW 20:57:55 56° NW 21:02:04 10° NNW visible
21 Oct 3.2 20:20:56 52° NE 20:20:56 52° NE 20:25:17 10° N visible
21 Oct 5.5 22:01:10 18° WNW 22:01:10 18° WNW 22:03:24 10° NW visible
22 Oct 3.9 19:43:57 28° ENE 19:43:57 28° ENE 19:48:06 10° N visible
22 Oct 4.5 21:24:10 33° WNW 21:24:10 33° WNW 21:27:29 10° NNW visible
23 Oct 4.6 19:06:58 14° ENE 19:07:33 15° ENE 19:10:17 10° NNE visible
23 Oct 3.5 20:47:11 51° NNW 20:47:11 51° NNW 20:50:58 10° NNW visible
24 Oct 3.6 20:10:12 40° NE 20:10:12 40° NE 20:14:05 10° N visible
24 Oct 5.3 21:50:25 20° WNW 21:50:25 20° WNW 21:52:38 10° NW visible
25 Oct 4.2 19:33:12 23° NE 19:33:12 23° NE 19:36:46 10° NNE visible
25 Oct 4.4 21:13:26 34° NW 21:13:26 34° NW 21:16:29 10° NNW visible
26 Oct 4.8 18:56:13 12° ENE 18:56:37 12° NE 18:58:29 10° NNE visible
26 Oct 3.7 20:36:26 43° N 20:36:26 43° N 20:39:51 10° N visible
26 Oct 5.9 22:16:39 11° WNW 22:16:39 11° WNW 22:17:11 10° NW visible
27 Oct 3.9 19:59:27 32° NE 19:59:27 32° NE 20:02:51 10° N visible
27 Oct 5.2 21:39:39 21° NW 21:39:39 21° NW 21:41:45 10° NNW visible
28 Oct 4.4 19:22:27 19° NE 19:22:27 19° NE 19:25:22 10° NNE visible
28 Oct 4.4 21:02:40 32° NNW 21:02:40 32° NNW 21:05:27 10° NNW visible
